FENGYUN 1C DEB, 30023

Orbit data source: Space-Track

FENGYUN 1C DEB, 30023 is space debris in SSO originally from a launch on Mon, 10 May 1999 UTC launched from the Taiyaun Space Center, China (TSC). Fengyun 1C debris stems from the Chinese weather satellite Fengyun-1C, which was intentionally destroyed by a Chinese anti-satellite missile in 2007. This event dramatically increased the amount of space debris, with thousands of trackable fragments posing hazards to satellites and human spaceflight. The Fengyun 1C debris cloud has become a focal point in discussions about space sustainability and the need for international regulations to prevent the creation of new debris.

Loading next visibility...
Identifier
30023, 1999-025MY
Orbit
SSO
Country
Flag of CNCN / PRC
Related business
Manufacturer
Unknown
Mission
Spacecraft
Bus & Motor
Unknown
Mass
Unknown
Launch date (UTC)
1999-05-10 (27 years ago)
Launch vehicle
Unknown
Launch site
Taiyaun Space Center, China (TSC)
Object type
Payload
Rocket body
Debris
Shape & HBR
Unknown shape, 0.1 m
Radar Cross Section
Medium (>0.1 m² and <1 m²)

Expand to show TLE details & history
Last TLE update: 6 days ago

TLE from 6 days ago
0 FENGYUN 1C DEB
1 30023U 99025MY  26155.14253704  .00000615  00000-0  35773-3 0  9998
2 30023  99.2866 359.9414 0045613 299.9792 184.2906 14.12131684996433
Epoch: 2026-06-04T03:25Z
TLE epoch observation values (Epoch: 2026-06-04T03:25:15.200Z)
Latitude
54.78051°
Longitude
-110.64137°
Altitude
893.98 km
Speed
7.393 km/s
True Right ascension
12h 53m 03s
True Declination
54° 37' 17"
Sunlit
Object was in daylight at epoch
Visualization orbit readout
Latitude
Unknown
Longitude
Unknown
Altitude
Unknown
Speed
Unknown
Apparent Right ascension
Unknown
Apparent Declination
Unknown
Sunlit
N/A
Visualization observer readout
Local Sidereal Time
00:21:13
Azimuth
Unknown
Elevation
Unknown
Doppler factor
Unknown
Orbital elements
Apogee altitude
882.25 km
Perigee altitude
816.317 km
Semi-major axis
7,227.421 km
Eccentricity
0.00456
Inclination
99.2866°
RAAN
359.9414°
Arg. of periapsis
299.9792°
True anomaly
184.25172°
Mean anomaly
184.2906°
Eccentric anomaly
184.27114°
Mean motion
3.53239 °/min
Orbital period
101.91 mins
BSTAR
0.00035773
Loading maneuver chart data...
Computing Atmospheric mass density...
Loading historical data...
Loading historical data...
Loading historical data...
Loading historical data...
Loading historical data...
Loading historical data...
Loading historical data...

Documentation

Showing up to 5 results
|